Flag Weather past 2 weeks in Sterling Heights, Michigan, U.S.A.

Now
47 °F

Light rain. Overcast.


Feels Like: 42 °F
Forecast: 42 / 49 °F
Wind: 12 mph from Southwest

Location: Selfridge Air National Guard Base

Current Time: Nov 22, 2014 at 7:17:47 PM

Latest Report: Nov 22, 2014 at 6:55 PM


Visibility: 7 mi

Pressure: 29.96 "Hg

Humidity: 94%

Dew point: 45 °F

Location of Sterling HeightsLocation

Historic Weather in Sterling Heights — Graph

°F

Sterling Heights temperature yesterday

Maximum temperature yesterday: 26 °F (at 1:55 PM)
Minimum temperature yesterday: 11 °F (at 6:58 AM)
Average temperature yesterday: 18 °F

Past Weeks' High & Low Weather Summary

 TemperatureHumidityPressure
High63 °F (Nov 11, 1:58 PM)100% (Nov 16, 7:56 PM)30.49 "Hg (Nov 16, 7:56 PM)
Low11 °F (Nov 21, 6:58 AM)26% (Nov 19, 1:55 PM)29.63 "Hg (Nov 17, 12:55 PM)
Average32 °F73%30.01 "Hg
* Reported Nov 7 5:55 PM — Nov 22 5:55 PM, Sterling Heights, Weather by CustomWeather, © 2014

Note: Actual official high and low records may vary slightly from our data, if they occured in-between our weather recording intervals... More about our weather records

Advertising

Sterling Heights weather history for previous 24 hours

 ConditionsComfort  
Time TempWeatherWind HumidityBarometerVisibility
5:55 PM
Nov 22
46 °FOvercast.14 mph97%29.96 "Hg7 mi
4:55 PM45 °FFog.14 mph97%29.96 "Hg5 mi
3:55 PM43 °FFog.13 mph94%29.97 "Hg6 mi
2:55 PM42 °FFog.14 mph96%29.98 "Hg6 mi
1:55 PM40 °FFog.14 mph97%29.99 "Hg5 mi
12:55 PM38 °FMostly cloudy.15 mph98%30.02 "Hg7 mi
11:55 AM37 °FMostly cloudy.8 mph97%30.04 "Hg7 mi
10:55 AM35 °FFog.13 mph99%30.09 "Hg5 mi
9:55 AM33 °FOvercast.12 mph99%30.11 "Hg7 mi
8:55 AM31 °FOvercast.10 mph99%30.13 "Hg7 mi
7:55 AM30 °FLight freezing rain. Ice fog.9 mph88%30.16 "Hg6 mi
7:00 AM30 °FMostly cloudy.12 mph64%30.12 "Hg10 mi
6:58 AM29 °FLight snow. Mostly cloudy.13 mph65%30.16 "Hg10 mi
5:58 AM29 °FOvercast.8 mph63%30.19 "Hg10 mi
4:58 AM28 °FOvercast.9 mph67%30.20 "Hg10 mi
3:58 AM27 °FOvercast.9 mph64%30.24 "Hg10 mi
2:58 AM24 °FOvercast.9 mph70%30.27 "Hg10 mi
1:58 AM22 °FPassing clouds.8 mph75%30.29 "Hg10 mi
12:58 AM18 °FClear.6 mph79%30.33 "Hg10 mi
11:58 PM
Nov 21
18 °FClear.7 mph81%30.35 "Hg10 mi
10:58 PM17 °FClear.6 mph83%30.37 "Hg10 mi
9:58 PM19 °FClear.5 mph80%30.39 "Hg10 mi
8:58 PM19 °FClear.6 mph78%30.42 "Hg10 mi
7:55 PM19 °FClear.7 mph75%30.44 "Hg12 mi
Weather by CustomWeather, © 2014

See weather overviewHow to use our weather pages